Time,TemperatureF,DewpointF,PressureIn,WindDirection,WindDirectionDegrees,WindSpeedMPH,WindSpeedGustMPH,Humidity,HourlyPrecipIn,Conditions,Clouds,dailyrainin,SoftwareType,DateUTC
2013-03-04 00:08:00,46.9,36.0,30.16,WSW,253,0.0,6.0,67,0.00,,,0.00,weatherlink.com 1.10,2013-03-04 05:08:00,
2013-03-04 00:23:00,46.4,36.0,30.17,WSW,255,2.0,6.0,67,0.00,,,0.00,weatherlink.com 1.10,2013-03-04 05:23:00,
2013-03-04 00:38:00,45.8,36.0,30.17,WNW,300,2.0,8.0,68,0.00,,,0.00,weatherlink.com 1.10,2013-03-04 05:38:00,
2013-03-04 00:53:00,45.2,36.0,30.16,SSW,210,0.0,6.0,70,0.00,,,0.00,weatherlink.com 1.10,2013-03-04 05:53:00,
2013-03-04 01:08:00,44.7,35.0,30.16,WSW,248,1.0,6.0,70,0.00,,,0.00,weatherlink.com 1.10,2013-03-04 06:08:00,
2013-03-04 01:23:00,44.3,35.0,30.16,West,271,0.0,7.0,71,0.00,,,0.00,weatherlink.com 1.10,2013-03-04 06:23:00,
2013-03-04 01:38:00,44.0,35.0,30.15,SSW,205,1.0,7.0,72,0.00,,,0.00,weatherlink.com 1.10,2013-03-04 06:38:00,
2013-03-04 01:53:00,43.6,35.0,30.15,SW,215,1.0,7.0,73,0.00,,,0.00,weatherlink.com 1.10,2013-03-04 06:53:00,
2013-03-04 02:08:00,43.2,35.0,30.14,WSW,239,1.0,7.0,73,0.00,,,0.00,weatherlink.com 1.10,2013-03-04 07:08:00,
2013-03-04 02:38:00,43.4,35.0,30.14,West,269,2.0,4.0,73,0.00,,,0.00,weatherlink.com 1.10,2013-03-04 07:38:00,
2013-03-04 02:53:00,43.5,35.0,30.13,West,269,2.0,5.0,72,0.00,,,0.00,weatherlink.com 1.10,2013-03-04 07:53:00,
2013-03-04 03:08:00,43.6,34.0,30.13,WSW,239,1.0,5.0,69,0.00,,,0.00,weatherlink.com 1.10,2013-03-04 08:08:00,
2013-03-04 03:24:00,43.8,33.0,30.13,West,279,1.0,5.0,67,0.00,,,0.00,weatherlink.com 1.10,2013-03-04 08:24:00,
2013-03-04 03:39:00,44.1,33.0,30.13,West,280,0.0,5.0,66,0.00,,,0.00,weatherlink.com 1.10,2013-03-04 08:39:00,
2013-03-04 03:54:00,43.8,33.0,30.13,SW,236,0.0,5.0,66,0.00,,,0.00,weatherlink.com 1.10,2013-03-04 08:54:00,
2013-03-04 04:09:00,43.8,34.0,30.13,WNW,285,1.0,3.0,69,0.00,,,0.00,weatherlink.com 1.10,2013-03-04 09:09:00,
2013-03-04 04:24:00,43.9,35.0,30.14,WSW,246,2.0,4.0,70,0.00,,,0.00,weatherlink.com 1.10,2013-03-04 09:24:00,
2013-03-04 04:39:00,43.7,34.0,30.14,SW,217,2.0,4.0,70,0.00,,,0.00,weatherlink.com 1.10,2013-03-04 09:39:00,
2013-03-04 04:54:00,43.9,35.0,30.15,SSW,210,0.0,4.0,71,0.00,,,0.00,weatherlink.com 1.10,2013-03-04 09:54:00,
2013-03-04 05:09:00,43.8,35.0,30.15,WSW,243,0.0,3.0,72,0.00,,,0.00,weatherlink.com 1.10,2013-03-04 10:09:00,
2013-03-04 05:24:00,44.3,36.0,30.15,West,269,0.0,4.0,72,0.00,,,0.00,weatherlink.com 1.10,2013-03-04 10:24:00,
2013-03-04 05:39:00,44.8,36.0,30.16,SW,218,0.0,5.0,72,0.00,,,0.00,weatherlink.com 1.10,2013-03-04 10:39:00,
2013-03-04 05:54:00,44.7,36.0,30.17,West,259,0.0,3.0,71,0.00,,,0.00,weatherlink.com 1.10,2013-03-04 10:54:00,
2013-03-04 06:09:00,44.4,36.0,30.17,WNW,283,1.0,2.0,72,0.00,,,0.00,weatherlink.com 1.10,2013-03-04 11:09:00,
2013-03-04 06:24:00,43.7,35.0,30.18,WSW,238,0.0,1.0,72,0.00,,,0.00,weatherlink.com 1.10,2013-03-04 11:24:00,
2013-03-04 06:39:00,43.0,35.0,30.18,WSW,257,0.0,1.0,73,0.00,,,0.00,weatherlink.com 1.10,2013-03-04 11:39:00,
2013-03-04 06:54:00,42.6,35.0,30.19,SW,217,0.0,1.0,74,0.00,,,0.00,weatherlink.com 1.10,2013-03-04 11:54:00,
2013-03-04 07:09:00,42.7,35.0,30.19,WNW,294,0.0,2.0,73,0.00,,,0.00,weatherlink.com 1.10,2013-03-04 12:09:00,
2013-03-04 07:24:00,44.0,35.0,30.20,West,274,1.0,2.0,70,0.00,,,0.00,weatherlink.com 1.10,2013-03-04 12:24:00,
2013-03-04 07:39:00,46.8,34.0,30.21,West,263,1.0,5.0,62,0.00,,,0.00,weatherlink.com 1.10,2013-03-04 12:39:00,
2013-03-04 07:54:00,48.5,34.0,30.21,West,271,0.0,5.0,57,0.00,,,0.00,weatherlink.com 1.10,2013-03-04 12:54:00,
2013-03-04 08:09:00,49.8,34.0,30.21,SW,217,0.0,5.0,56,0.00,,,0.00,weatherlink.com 1.10,2013-03-04 13:09:00,
2013-03-04 08:24:00,51.0,34.0,30.22,West,273,1.0,5.0,52,0.00,,,0.00,weatherlink.com 1.10,2013-03-04 13:24:00,
2013-03-04 08:39:00,52.2,34.0,30.22,ESE,110,3.0,4.0,51,0.00,,,0.00,weatherlink.com 1.10,2013-03-04 13:39:00,
2013-03-04 08:54:00,53.1,34.0,30.22,North,350,1.0,4.0,49,0.00,,,0.00,weatherlink.com 1.10,2013-03-04 13:54:00,
2013-03-04 09:09:00,54.2,34.0,30.22,West,273,1.0,8.0,47,0.00,,,0.00,weatherlink.com 1.10,2013-03-04 14:09:00,
2013-03-04 09:24:00,54.7,35.0,30.23,WNW,295,0.0,4.0,47,0.00,,,0.00,weatherlink.com 1.10,2013-03-04 14:24:00,
2013-03-04 09:39:00,55.7,34.0,30.23,SE,141,1.0,5.0,45,0.00,,,0.00,weatherlink.com 1.10,2013-03-04 14:39:00,
2013-03-04 09:54:00,57.3,35.0,30.23,WNW,295,0.0,4.0,43,0.00,,,0.00,weatherlink.com 1.10,2013-03-04 14:54:00,
2013-03-04 10:09:00,58.0,35.0,30.22,SSE,161,0.0,6.0,43,0.00,,,0.00,weatherlink.com 1.10,2013-03-04 15:09:00,
2013-03-04 17:57:00,58.2,43.0,30.16,SE,133,0.0,1.0,57,0.00,,,0.00,weatherlink.com 1.10,2013-03-04 22:57:00,
2013-03-04 18:12:00,57.3,43.0,30.16,South,179,0.0,0.0,60,0.00,,,0.00,weatherlink.com 1.10,2013-03-04 23:12:00,
2013-03-04 18:42:00,54.9,44.0,30.16,South,176,0.0,0.0,68,0.00,,,0.00,weatherlink.com 1.10,2013-03-04 23:42:00,
2013-03-04 18:57:00,53.9,45.0,30.16,South,176,0.0,0.0,71,0.00,,,0.00,weatherlink.com 1.10,2013-03-04 23:57:00,
2013-03-04 19:12:00,53.4,45.0,30.16,South,176,0.0,0.0,72,0.00,,,0.00,weatherlink.com 1.10,2013-03-05 00:12:00,
2013-03-04 19:27:00,53.2,45.0,30.16,South,176,0.0,0.0,73,0.00,,,0.00,weatherlink.com 1.10,2013-03-05 00:27:00,
2013-03-04 19:42:00,53.1,44.0,30.16,South,176,0.0,0.0,72,0.00,,,0.00,weatherlink.com 1.10,2013-03-05 00:42:00,
2013-03-04 19:57:00,52.9,45.0,30.17,South,176,0.0,0.0,74,0.00,,,0.00,weatherlink.com 1.10,2013-03-05 00:57:00,
2013-03-04 20:12:00,52.9,46.0,30.18,South,176,0.0,0.0,77,0.00,,,0.00,weatherlink.com 1.10,2013-03-05 01:12:00,
2013-03-04 20:27:00,52.6,46.0,30.18,South,176,0.0,0.0,79,0.00,,,0.00,weatherlink.com 1.10,2013-03-05 01:27:00,
2013-03-04 20:42:00,51.9,46.0,30.18,South,176,0.0,0.0,81,0.00,,,0.00,weatherlink.com 1.10,2013-03-05 01:42:00,
2013-03-04 20:58:00,51.4,46.0,30.18,South,176,0.0,0.0,83,0.00,,,0.00,weatherlink.com 1.10,2013-03-05 01:58:00,
2013-03-04 21:13:00,51.2,46.0,30.18,South,176,0.0,0.0,83,0.00,,,0.00,weatherlink.com 1.10,2013-03-05 02:13:00,
2013-03-04 21:28:00,51.0,46.0,30.18,South,176,0.0,0.0,84,0.00,,,0.00,weatherlink.com 1.10,2013-03-05 02:28:00,
2013-03-04 21:43:00,50.4,46.0,30.19,South,176,0.0,0.0,84,0.00,,,0.00,weatherlink.com 1.10,2013-03-05 02:43:00,
2013-03-04 21:58:00,49.9,46.0,30.19,South,176,0.0,0.0,85,0.00,,,0.00,weatherlink.com 1.10,2013-03-05 02:58:00,
2013-03-04 22:13:00,49.6,45.0,30.18,South,176,0.0,0.0,85,0.00,,,0.00,weatherlink.com 1.10,2013-03-05 03:13:00,
2013-03-04 22:28:00,49.2,45.0,30.19,South,176,0.0,0.0,86,0.00,,,0.00,weatherlink.com 1.10,2013-03-05 03:28:00,
2013-03-04 22:43:00,49.0,45.0,30.18,South,176,0.0,0.0,87,0.00,,,0.00,weatherlink.com 1.10,2013-03-05 03:43:00,
2013-03-04 22:58:00,48.9,45.0,30.19,South,176,0.0,0.0,86,0.00,,,0.00,weatherlink.com 1.10,2013-03-05 03:58:00,
2013-03-04 23:13:00,49.0,45.0,30.18,South,176,0.0,0.0,87,0.00,,,0.00,weatherlink.com 1.10,2013-03-05 04:13:00,
2013-03-04 23:28:00,49.5,45.0,30.19,South,176,0.0,1.0,85,0.00,,,0.00,weatherlink.com 1.10,2013-03-05 04:28:00,
2013-03-04 23:43:00,50.1,46.0,30.18,South,177,0.0,0.0,84,0.00,,,0.00,weatherlink.com 1.10,2013-03-05 04:43:00,
2013-03-04 23:58:00,50.0,45.0,30.18,South,177,0.0,0.0,83,0.00,,,0.00,weatherlink.com 1.10,2013-03-05 04:58:00,